SCP
0 0 0 0 0 0 0 0 0 0 0 0 0 0 0 0 0 0 0 0 0 0 0 0 0 0 0 0 0 0 0 0 0 0 0 0 0 0 0 0 0 0 0 0 0 0 0
0 0 0 0 0 -0 -0 0 0 0 0 0 0 0 0 0 0 0 0 0 0 0 0 0 0 0 0 0 0 0 0 0 0 0 0 0 0 0 0 0 0 0 0 0 0 0 0
0 0 0 0 0 0 0 0 0 0 0 0 0 0 0 0 0 0 0 0 0 0 0 0 0 0 0 0 0 0 0 0 0 0 0 0 0 0 0 0 0 0 0 0 0 0 0
0 0 0 0 0 0 0 0 0 0 0 0 0 0 0 0 0 0 0 0 0 0 0 0 0 0 0 0 0 0 0 0 0 0 0 0 0 0 0 0 0 0 0 0 0 0 0
0 0 0 0 0 0 0 0 0 0 0 0 0 0 0 0 0 0 0 0 0 0 0 0 0 0 0 0 0 0 0 0 0 0 0 0 0 0 0 0 0 0 0 0 0 0 0
0 0 0 0 0 0 0 0 0 0 0 0 0 0 0 0 0 0 0 0 0 0 0 0 0 0 0 0 0 0 0 0 0 0 0 0 0 0 0 0 0 0 0 0 0 0 0
0 0 0 0 0 -0 0 0 0 0 0 0 0 0 0 0 0 0 0 0 0 0 0 0 0 0 0 0 0 0 0 0 0 0 0 0 0 0 0 0 0 0 0 0 0 0 0
0 0 0 0 0 0 -0 0 0 0 0 0 0 0 0 0 0 0 0 0 0 0 0 0 0 0 0 0 0 0 0 0 0 0 0 0 0 0 0 0 0 0 0 0 0 0 0
0 0 0 0 0 0 0 0 0 0 0 0 0 0 0 0 0 0 0 0 0 0 0 0 0 0 0 0 0 0 0 0 0 0 0 0 0 0 0 0 0 0 0 0 0 0 0
0 0 0 0 0 0 0 0 0 0 0 0 0 0 0 0 0 0 0 0 0 0 0 0 0 0 0 0 0 0 0 0 0 0 0 0 0 0 0 0 0 0 0 0 0 0 0
0 0 0 0 0 0 0 0 0 0 0 0 0 0 0 0 0 0 0 0 0 0 0 0 0 0 0 0 0 0 0 0 0 0 0 0 0 0 0 0 0 0 0 0 0 0 0
0 0 0 0 0 0 0 0 0 0 0 0 0 0 0 0 0 0 0 0 0 0 0 0 0 0 0 0 0 0 0 0 0 0 0 0 0 0 0 0 0 0 0 0 0 0 0
0 0 0 0 0 0 0 0 0 0 0 0 0 0 0 0 0 0 0 0 0 0 0 0 0 0 0 0 0 0 0 0 0 0 0 0 0 0 0 0 0 0 0 0 0 0 0
0 0 0 0 0 0 0 0 0 0 0 0 0 0 0 0 0 0 0 0 0 0 0 0 0 0 0 0 0 0 0 0 0 0 0 0 0 0 0 0 0 0 0 0 0 0 0
0 0 0 0 0 0 0 0 0 0 0 0 0 0 0 0 0 0 0 0 0 0 0 0 0 0 0 0 0 0 0 0 0 0 0 0 0 0 0 0 0 0 0 0 0 0 0
0 0 0 0 0 0 -0 -0 0 0 0 0 0 0 0 0 0 0 0 0 0 0 0 0 0 0 0 0 0 0 0 0 0 0 0 0 0 0 0 0 0 0 0 0 0 0 0
0 0 0 0 0 0 0 -0 -0 0 0 0 0 0 0 0 0 0 0 0 0 0 0 0 0 0 0 0 0 0 0 0 0 0 0 0 0 0 0 0 0 0 0 0 0 0 0
0 0 0 0 0 0 0 -0 0 0 0 0 0 0 0 0 0 0 0 0 0 0 0 0 0 0 0 0 0 0 0 0 0 0 0 0 0 0 0 0 0 0 0 0 0 0 0
0 0 0 0 0 0 0 0 0 0 0 0 0 0 0 0 0 0 0 0 0 0 0 0 0 0 0 0 0 0 0 0 0 0 0 0 0 0 0 0 0 0 0 0 0 0 0
0 0 0 0 0 0 0 0 0 0 0 -0 0 0 0 0 0 0 0 0 0 0 0 0 0 0 0 0 0 0 0 0 0 0 0 0 0 0 0 0 0 0 0 0 0 0 0
0 0 0 0 0 0 0 0 0 0 0 -0 0 0 0 0 0 0 0 0 0 0 0 0 0 0 0 0 0 0 0 0 0 0 0 0 0 0 0 0 0 0 0 0 0 0 0
0 0 0 0 0 0 0 0 0 0 0 -0 0 0 0 0 0 0 0 0 0 0 0 0 0 0 0 0 0 0 0 0 0 0 0 0 0 0 0 0 0 0 0 0 0 0 0
0 0 0 0 0 0 0 0 0 0 0 0 0 -0 -0 -0 -0 0 0 0 0 0 0 0 0 0 0 0 0 0 0 0 0 0 0 0 0 0 0 0 0 0 0 0 0 0 0
0 0 0 0 0 0 0 0 0 -0 -0 0 0 -0 -0 -0 -0 -0 -0 -0 0 0 0 0 0 0 0 0 0 0 0 0 0 0 0 0 0 0 0 0 0 0 0 0 0 0 0
0 0 0 0 0 0 0 0 0 0 0 -0 0 0 0 0 -0 -0 -0 0 0 0 0 0 0 0 0 0 0 0 0 0 0 0 0 0 0 0 0 0 0 0 0 0 0 0 0
0 0 0 0 0 0 0 0 0 0 0 0 0 0 0 0 0 0 -0 0 -0 0 0 0 0 0 0 0 0 0 0 0 0 0 0 0 0 0 0 0 0 0 0 0 0 0 -0
0 0 0 0 0 0 0 0 0 0 0 0 0 0 0 0 0 0 0 0 0 0 0 0 0 0 0 0 0 0 0 0 0 0 0 0 0 0 0 0 0 0 0 0 0 0 0
0 0 0 0 0 0 0 0 0 0 0 0 0 0 0 0 0 0 0 0 0 0 0 0 0 0 0 0 0 0 0 0 0 0 0 0 0 0 0 0 0 0 0 0 0 0 0
0 0 0 0 0 0 0 0 0 0 0 0 0 0 0 0 0 0 0 0 0 0 0 0 0 0 0 0 0 0 0 0 0 0 0 0 0 0 0 0 0 0 0 0 0 0 0
Wind_Speed_500mb
42 36 37 39 38 38 41 39 37 36 35 36 36 36 33 33 32 30 29 28 25 24 23 22 20 19 16 15 20 20 10 6 4 8 13 16 22 24 23 16 18 26 27 12 13 10 14
46 38 40 40 40 40 40 43 40 38 38 36 37 36 33 32 32 30 28 27 25 24 22 20 18 18 19 28 24 26 25 21 15 10 11 16 9 19 19 19 24 6 14 14 11 13 12
40 41 51 48 48 40 42 43 43 41 36 36 36 36 33 31 30 29 27 25 25 23 22 20 18 19 22 24 21 22 23 22 20 18 11 15 12 15 5 11 10 6 15 11 23 14 8
35 44 50 53 54 47 43 42 41 41 40 37 35 33 33 31 29 28 25 24 23 20 18 15 13 14 15 30 37 25 13 13 19 20 20 17 17 10 9 5 5 10 10 22 5 19 10
36 39 45 59 60 55 46 44 42 41 36 36 36 33 31 30 28 24 23 20 17 14 9 6 8 11 11 13 20 24 29 15 15 17 19 14 14 12 10 15 18 19 26 29 16 29 11
39 39 45 51 45 68 53 43 42 41 38 34 35 35 32 29 26 22 19 14 12 11 8 8 12 9 16 6 13 14 22 23 8 14 10 12 15 17 21 23 27 28 31 27 28 14 20
38 43 50 56 55 33 46 40 47 41 41 39 37 34 33 29 23 22 16 7 3 8 22 15 6 5 4 14 10 10 16 20 13 18 17 25 20 30 37 37 38 38 31 33 24 8 12
38 38 41 42 34 34 38 51 49 47 45 44 39 33 32 30 23 23 21 14 12 6 15 33 31 23 13 11 6 11 19 19 19 24 23 11 32 30 14 18 30 32 37 40 36 11 10
38 37 38 37 29 33 49 49 46 49 50 43 36 33 34 29 23 23 25 25 12 9 11 9 22 15 13 19 9 18 24 11 16 25 28 28 3 10 8 19 22 33 36 36 35 10 26
33 35 37 39 37 36 44 47 57 50 47 40 34 32 31 23 11 20 18 23 15 6 7 12 11 10 14 12 11 21 29 11 11 21 20 23 4 9 11 22 24 29 19 24 30 13 17
34 35 36 35 41 40 37 39 49 42 43 43 38 31 27 20 13 10 11 16 15 4 8 12 9 11 16 15 13 6 19 8 16 15 11 7 9 14 21 11 17 3 6 9 20 24 26
24 27 29 34 39 37 35 33 40 57 40 45 44 30 25 23 24 10 10 18 14 4 18 8 10 11 13 10 8 11 8 5 5 7 7 4 1 5 3 5 1 6 4 5 7 12 15
27 30 33 39 42 41 34 28 32 48 52 52 46 33 31 21 17 18 17 21 4 13 3 8 9 13 17 14 12 14 16 19 13 12 19 10 14 8 5 8 5 14 11 7 9 10 16
32 34 36 38 44 39 38 35 34 34 64 48 50 33 29 33 23 17 29 4 14 2 4 2 6 13 11 18 11 17 14 16 24 11 5 14 11 19 18 6 8 26 13 10 14 17 20
40 45 44 46 53 50 41 38 35 31 45 59 41 38 24 33 32 25 14 13 11 5 8 17 10 10 10 10 6 17 20 12 12 29 17 13 7 7 3 2 4 14 15 5 10 4 10
40 44 47 49 52 55 58 51 30 20 28 58 55 39 28 28 29 33 6 34 10 3 3 7 14 17 16 14 15 20 22 10 9 19 6 1 5 1 7 3 5 5 5 7 8 9 15
37 42 46 48 52 55 59 61 46 18 22 66 50 12 13 40 29 17 16 18 16 13 6 8 8 4 7 13 16 11 7 5 7 14 12 2 1 8 4 18 19 10 9 9 5 9 10
35 39 43 47 50 53 57 64 55 31 26 56 34 5 16 35 8 6 21 8 10 6 4 6 5 8 11 12 14 15 14 7 15 20 20 9 2 8 11 7 5 5 11 19 10 12 12
35 37 42 46 48 51 53 46 27 18 20 7 1 5 25 50 10 12 10 12 11 12 12 1 7 12 12 12 9 14 13 7 23 14 10 17 7 7 8 3 2 10 15 16 16 7 28
34 38 42 43 46 48 47 48 38 31 28 32 10 4 3 24 12 8 19 16 21 24 19 17 9 8 10 13 17 5 7 3 13 7 8 14 9 13 20 8 7 8 13 25 20 15 24
31 34 36 40 45 46 46 46 45 44 30 18 13 4 1 2 7 13 15 9 14 16 10 10 10 37 27 14 6 12 12 6 3 9 8 4 10 8 20 25 11 14 16 21 31 40 27
32 34 35 36 37 40 42 44 42 43 36 11 8 6 4 8 12 11 9 8 23 15 9 11 26 19 23 33 29 3 13 12 13 5 11 3 14 5 10 23 24 29 31 27 43 43 49
36 37 38 39 38 37 37 36 36 36 32 10 14 9 7 11 6 6 9 5 7 6 18 33 19 10 23 35 33 43 24 26 19 15 20 13 11 8 13 4 16 29 40 48 43 37 46
41 41 42 42 41 39 36 36 33 26 22 15 15 13 9 14 13 14 9 18 23 23 21 29 31 16 7 17 11 20 27 31 32 27 27 12 17 9 5 4 17 2 4 15 40 43 40
48 47 47 45 45 46 41 38 32 29 23 19 19 14 8 13 20 24 27 24 33 34 32 35 46 47 36 12 7 8 7 7 15 29 23 21 18 8 10 19 25 33 20 15 16 22 37
52 55 50 47 49 48 46 47 41 38 36 34 33 28 22 18 14 26 22 23 19 21 18 21 14 14 31 11 8 11 14 9 10 4 3 7 17 16 11 12 18 5 6 16 9 16 25
63 57 55 51 54 56 54 52 51 48 43 41 48 41 31 24 45 47 25 22 25 16 15 21 15 5 29 8 12 10 13 4 15 17 13 11 10 30 31 24 18 11 14 15 6 9 2
60 60 63 67 66 64 63 58 59 55 55 48 56 49 49 37 57 48 42 37 28 28 17 9 10 9 7 11 12 16 13 12 7 10 18 22 25 15 19 15 35 22 16 18 5 4 7
72 75 77 72 66 65 61 59 59 59 57 51 64 56 60 58 51 36 64 71 58 63 48 33 23 13 8 8 9 10 16 11 18 25 19 12 19 12 22 16 3 22 32 40 24 23 23
Wind_Direction_500mb
277 287 298 302 304 309 313 310 298 290 283 281 283 284 282 280 275 270 265 263 258 256 260 264 264 253 222 228 247 247 226 186 197 213 205 218 227 232 244 243 230 245 251 222 215 215 212
265 290 291 294 298 304 309 313 312 294 283 281 281 283 283 280 278 273 267 263 262 261 265 261 256 240 211 241 251 245 240 241 235 224 221 211 229 239 276 253 236 358 253 255 241 219 238
284 273 285 287 291 295 300 304 309 311 290 281 279 283 281 281 279 272 266 265 265 266 268 265 248 217 228 240 250 238 240 235 228 220 217 216 220 213 253 236 231 263 263 236 230 211 237
293 272 273 277 285 285 293 295 302 312 309 289 282 284 283 278 275 271 260 262 266 267 265 258 236 191 251 240 241 233 219 226 223 219 218 214 206 220 237 164 195 236 248 255 151 173 200
295 285 275 273 273 272 278 286 293 303 306 301 290 283 282 280 275 268 257 256 260 258 251 208 170 193 245 252 229 227 225 218 218 214 214 206 177 220 183 225 241 214 258 229 251 204 179
296 293 287 290 291 262 266 278 284 292 301 309 300 287 281 277 273 261 252 248 250 253 222 211 218 224 239 211 211 211 213 200 179 173 167 182 204 217 219 214 230 239 234 260 251 182 218
310 296 290 287 295 281 277 278 284 282 291 297 306 292 282 276 263 246 231 200 231 251 214 207 225 267 168 211 191 203 189 180 167 200 205 200 216 218 225 228 250 274 278 267 273 117 255
332 320 308 310 297 284 261 278 289 281 281 286 296 309 285 275 260 233 218 202 240 253 282 237 238 229 228 183 180 209 175 184 195 210 203 191 231 239 243 282 244 254 256 261 270 167 222
336 331 322 317 310 284 277 269 264 272 266 272 281 294 304 278 258 237 225 224 257 277 263 227 221 216 214 212 235 189 180 200 216 217 206 229 120 62 203 231 236 242 250 259 264 277 238
339 337 335 328 312 290 280 289 275 269 256 262 270 286 304 284 259 241 239 232 229 247 290 197 207 197 188 166 226 198 185 196 202 226 220 244 145 178 199 234 226 253 258 257 264 256 263
335 334 340 338 332 313 294 294 263 268 258 274 265 274 293 253 218 201 230 213 198 140 266 100 154 169 168 194 131 175 187 192 211 183 190 188 192 200 225 241 188 270 12 250 262 258 276
359 348 338 335 332 332 326 297 275 258 273 265 274 258 276 275 227 217 219 171 154 148 243 145 137 166 161 191 155 127 163 150 110 170 235 315 41 246 46 87 18 104 139 193 234 258 253
356 345 335 329 323 334 326 319 303 266 261 252 259 240 236 257 228 206 165 149 156 218 64 176 179 180 206 171 175 191 175 183 183 165 212 176 206 142 192 161 151 200 189 227 235 211 251
334 332 328 326 325 324 317 323 300 285 250 247 228 222 229 226 212 192 165 141 225 323 224 66 137 162 201 160 187 186 181 210 221 230 166 201 219 182 163 243 200 193 218 237 255 246 283
29 27 24 21 18 10 351 318 314 316 249 223 219 213 211 202 221 179 171 207 224 200 128 163 154 185 203 212 215 185 209 215 202 196 207 189 182 123 68 343 305 161 215 14 311 152 270
22 20 17 16 14 13 10 359 322 304 243 226 214 200 207 199 186 174 186 224 238 350 119 189 224 206 189 184 191 199 192 189 203 200 52 256 188 29 110 203 202 280 344 169 211 248 252
16 13 12 10 9 8 9 4 350 290 251 222 207 181 207 189 169 176 218 227 247 253 214 224 289 234 227 179 198 205 204 177 201 162 149 73 270 112 161 202 190 172 211 221 290 251 263
8 8 5 5 5 5 8 14 20 64 209 212 198 187 183 181 140 192 237 223 6 278 197 275 265 285 210 173 201 216 218 217 167 162 157 174 112 228 209 96 8 338 236 193 224 210 239
360 2 3 2 2 4 6 19 36 0 16 254 357 134 173 173 181 208 241 290 275 282 270 189 268 234 265 232 242 200 198 131 169 178 165 167 202 227 197 187 22 222 208 231 257 296 246
353 355 359 1 2 2 4 4 5 1 337 334 325 357 16 195 314 277 217 235 233 234 252 215 228 312 252 254 240 247 237 143 194 196 152 167 182 243 247 57 76 203 215 224 222 248 263
341 345 349 351 354 356 359 360 360 357 359 0 26 62 92 232 260 269 321 332 244 231 229 276 244 226 231 242 217 221 208 133 166 186 176 206 229 217 260 268 226 241 222 204 216 233 245
327 331 335 339 342 343 347 351 355 358 10 45 8 343 290 242 222 258 227 265 260 283 235 224 234 253 237 242 247 278 255 187 238 174 203 68 218 124 263 256 244 254 243 233 242 240 257
314 319 323 326 327 330 330 336 343 352 360 11 351 306 298 275 228 242 201 231 301 328 228 239 265 288 239 247 259 266 266 258 246 183 187 169 198 181 252 346 290 270 242 228 243 240 238
304 307 310 311 309 311 315 319 321 328 346 333 316 324 274 271 239 254 253 226 260 253 262 278 292 273 276 269 244 246 243 246 252 244 189 167 195 193 254 148 250 354 117 223 233 249 242
295 297 299 300 303 298 296 294 297 297 294 294 288 283 266 275 277 270 273 273 284 281 274 272 264 250 262 218 221 216 184 211 217 228 219 186 180 200 222 211 284 296 258 189 186 255 232
289 287 285 292 290 295 291 293 290 282 284 276 263 259 244 277 259 269 275 281 281 287 279 266 266 273 210 207 234 232 219 198 191 178 319 227 209 208 180 232 246 96 43 118 146 269 254
283 282 285 288 289 291 289 286 282 283 278 272 272 255 238 247 255 249 254 266 266 264 279 293 297 255 212 222 226 243 248 191 186 186 170 175 198 214 223 241 269 212 159 151 208 279 146
287 287 286 285 286 281 279 279 278 280 275 270 267 263 258 251 254 245 235 223 243 237 253 322 290 209 218 234 236 222 235 222 268 184 174 172 177 197 218 236 254 159 126 216 213 188 252
283 284 282 281 279 278 275 279 279 278 273 268 269 266 268 252 262 267 248 251 247 243 249 242 250 290 289 269 249 258 240 207 223 242 186 220 214 194 205 214 275 192 221 225 274 292 292
Wind_Speed_850mb
42 36 37 39 38 38 41 39 37 36 35 36 36 36 33 33 32 30 29 28 25 24 23 22 20 19 16 15 20 20 10 6 4 8 13 16 22 24 23 16 18 26 27 12 13 10 14
46 38 40 40 40 40 40 43 40 38 38 36 37 36 33 32 32 30 28 27 25 24 22 20 18 18 19 28 24 26 25 21 15 10 11 16 9 19 19 19 24 6 14 14 11 13 12
40 41 51 48 48 40 42 43 43 41 36 36 36 36 33 31 30 29 27 25 25 23 22 20 18 19 22 24 21 22 23 22 20 18 11 15 12 15 5 11 10 6 15 11 23 14 8
35 44 50 53 54 47 43 42 41 41 40 37 35 33 33 31 29 28 25 24 23 20 18 15 13 14 15 30 37 25 13 13 19 20 20 17 17 10 9 5 5 10 10 22 5 19 10
36 39 45 59 60 55 46 44 42 41 36 36 36 33 31 30 28 24 23 20 17 14 9 6 8 11 11 13 20 24 29 15 15 17 19 14 14 12 10 15 18 19 26 29 16 29 11
39 39 45 51 45 68 53 43 42 41 38 34 35 35 32 29 26 22 19 14 12 11 8 8 12 9 16 6 13 14 22 23 8 14 10 12 15 17 21 23 27 28 31 27 28 14 20
38 43 50 56 55 33 46 40 47 41 41 39 37 34 33 29 23 22 16 7 3 8 22 15 6 5 4 14 10 10 16 20 13 18 17 25 20 30 37 37 38 38 31 33 24 8 12
38 38 41 42 34 34 38 51 49 47 45 44 39 33 32 30 23 23 21 14 12 6 15 33 31 23 13 11 6 11 19 19 19 24 23 11 32 30 14 18 30 32 37 40 36 11 10
38 37 38 37 29 33 49 49 46 49 50 43 36 33 34 29 23 23 25 25 12 9 11 9 22 15 13 19 9 18 24 11 16 25 28 28 3 10 8 19 22 33 36 36 35 10 26
33 35 37 39 37 36 44 47 57 50 47 40 34 32 31 23 11 20 18 23 15 6 7 12 11 10 14 12 11 21 29 11 11 21 20 23 4 9 11 22 24 29 19 24 30 13 17
34 35 36 35 41 40 37 39 49 42 43 43 38 31 27 20 13 10 11 16 15 4 8 12 9 11 16 15 13 6 19 8 16 15 11 7 9 14 21 11 17 3 6 9 20 24 26
24 27 29 34 39 37 35 33 40 57 40 45 44 30 25 23 24 10 10 18 14 4 18 8 10 11 13 10 8 11 8 5 5 7 7 4 1 5 3 5 1 6 4 5 7 12 15
27 30 33 39 42 41 34 28 32 48 52 52 46 33 31 21 17 18 17 21 4 13 3 8 9 13 17 14 12 14 16 19 13 12 19 10 14 8 5 8 5 14 11 7 9 10 16
32 34 36 38 44 39 38 35 34 34 64 48 50 33 29 33 23 17 29 4 14 2 4 2 6 13 11 18 11 17 14 16 24 11 5 14 11 19 18 6 8 26 13 10 14 17 20
40 45 44 46 53 50 41 38 35 31 45 59 41 38 24 33 32 25 14 13 11 5 8 17 10 10 10 10 6 17 20 12 12 29 17 13 7 7 3 2 4 14 15 5 10 4 10
40 44 47 49 52 55 58 51 30 20 28 58 55 39 28 28 29 33 6 34 10 3 3 7 14 17 16 14 15 20 22 10 9 19 6 1 5 1 7 3 5 5 5 7 8 9 15
37 42 46 48 52 55 59 61 46 18 22 66 50 12 13 40 29 17 16 18 16 13 6 8 8 4 7 13 16 11 7 5 7 14 12 2 1 8 4 18 19 10 9 9 5 9 10
35 39 43 47 50 53 57 64 55 31 26 56 34 5 16 35 8 6 21 8 10 6 4 6 5 8 11 12 14 15 14 7 15 20 20 9 2 8 11 7 5 5 11 19 10 12 12
35 37 42 46 48 51 53 46 27 18 20 7 1 5 25 50 10 12 10 12 11 12 12 1 7 12 12 12 9 14 13 7 23 14 10 17 7 7 8 3 2 10 15 16 16 7 28
34 38 42 43 46 48 47 48 38 31 28 32 10 4 3 24 12 8 19 16 21 24 19 17 9 8 10 13 17 5 7 3 13 7 8 14 9 13 20 8 7 8 13 25 20 15 24
31 34 36 40 45 46 46 46 45 44 30 18 13 4 1 2 7 13 15 9 14 16 10 10 10 37 27 14 6 12 12 6 3 9 8 4 10 8 20 25 11 14 16 21 31 40 27
32 34 35 36 37 40 42 44 42 43 36 11 8 6 4 8 12 11 9 8 23 15 9 11 26 19 23 33 29 3 13 12 13 5 11 3 14 5 10 23 24 29 31 27 43 43 49
36 37 38 39 38 37 37 36 36 36 32 10 14 9 7 11 6 6 9 5 7 6 18 33 19 10 23 35 33 43 24 26 19 15 20 13 11 8 13 4 16 29 40 48 43 37 46
41 41 42 42 41 39 36 36 33 26 22 15 15 13 9 14 13 14 9 18 23 23 21 29 31 16 7 17 11 20 27 31 32 27 27 12 17 9 5 4 17 2 4 15 40 43 40
48 47 47 45 45 46 41 38 32 29 23 19 19 14 8 13 20 24 27 24 33 34 32 35 46 47 36 12 7 8 7 7 15 29 23 21 18 8 10 19 25 33 20 15 16 22 37
52 55 50 47 49 48 46 47 41 38 36 34 33 28 22 18 14 26 22 23 19 21 18 21 14 14 31 11 8 11 14 9 10 4 3 7 17 16 11 12 18 5 6 16 9 16 25
63 57 55 51 54 56 54 52 51 48 43 41 48 41 31 24 45 47 25 22 25 16 15 21 15 5 29 8 12 10 13 4 15 17 13 11 10 30 31 24 18 11 14 15 6 9 2
60 60 63 67 66 64 63 58 59 55 55 48 56 49 49 37 57 48 42 37 28 28 17 9 10 9 7 11 12 16 13 12 7 10 18 22 25 15 19 15 35 22 16 18 5 4 7
72 75 77 72 66 65 61 59 59 59 57 51 64 56 60 58 51 36 64 71 58 63 48 33 23 13 8 8 9 10 16 11 18 25 19 12 19 12 22 16 3 22 32 40 24 23 23
Wind_Direction_850mb
277 287 298 302 304 309 313 310 298 290 283 281 283 284 282 280 275 270 265 263 258 256 260 264 264 253 222 228 247 247 226 186 197 213 205 218 227 232 244 243 230 245 251 222 215 215 212
265 290 291 294 298 304 309 313 312 294 283 281 281 283 283 280 278 273 267 263 262 261 265 261 256 240 211 241 251 245 240 241 235 224 221 211 229 239 276 253 236 358 253 255 241 219 238
284 273 285 287 291 295 300 304 309 311 290 281 279 283 281 281 279 272 266 265 265 266 268 265 248 217 228 240 250 238 240 235 228 220 217 216 220 213 253 236 231 263 263 236 230 211 237
293 272 273 277 285 285 293 295 302 312 309 289 282 284 283 278 275 271 260 262 266 267 265 258 236 191 251 240 241 233 219 226 223 219 218 214 206 220 237 164 195 236 248 255 151 173 200
295 285 275 273 273 272 278 286 293 303 306 301 290 283 282 280 275 268 257 256 260 258 251 208 170 193 245 252 229 227 225 218 218 214 214 206 177 220 183 225 241 214 258 229 251 204 179
296 293 287 290 291 262 266 278 284 292 301 309 300 287 281 277 273 261 252 248 250 253 222 211 218 224 239 211 211 211 213 200 179 173 167 182 204 217 219 214 230 239 234 260 251 182 218
310 296 290 287 295 281 277 278 284 282 291 297 306 292 282 276 263 246 231 200 231 251 214 207 225 267 168 211 191 203 189 180 167 200 205 200 216 218 225 228 250 274 278 267 273 117 255
332 320 308 310 297 284 261 278 289 281 281 286 296 309 285 275 260 233 218 202 240 253 282 237 238 229 228 183 180 209 175 184 195 210 203 191 231 239 243 282 244 254 256 261 270 167 222
336 331 322 317 310 284 277 269 264 272 266 272 281 294 304 278 258 237 225 224 257 277 263 227 221 216 214 212 235 189 180 200 216 217 206 229 120 62 203 231 236 242 250 259 264 277 238
339 337 335 328 312 290 280 289 275 269 256 262 270 286 304 284 259 241 239 232 229 247 290 197 207 197 188 166 226 198 185 196 202 226 220 244 145 178 199 234 226 253 258 257 264 256 263
335 334 340 338 332 313 294 294 263 268 258 274 265 274 293 253 218 201 230 213 198 140 266 100 154 169 168 194 131 175 187 192 211 183 190 188 192 200 225 241 188 270 12 250 262 258 276
359 348 338 335 332 332 326 297 275 258 273 265 274 258 276 275 227 217 219 171 154 148 243 145 137 166 161 191 155 127 163 150 110 170 235 315 41 246 46 87 18 104 139 193 234 258 253
356 345 335 329 323 334 326 319 303 266 261 252 259 240 236 257 228 206 165 149 156 218 64 176 179 180 206 171 175 191 175 183 183 165 212 176 206 142 192 161 151 200 189 227 235 211 251
334 332 328 326 325 324 317 323 300 285 250 247 228 222 229 226 212 192 165 141 225 323 224 66 137 162 201 160 187 186 181 210 221 230 166 201 219 182 163 243 200 193 218 237 255 246 283
29 27 24 21 18 10 351 318 314 316 249 223 219 213 211 202 221 179 171 207 224 200 128 163 154 185 203 212 215 185 209 215 202 196 207 189 182 123 68 343 305 161 215 14 311 152 270
22 20 17 16 14 13 10 359 322 304 243 226 214 200 207 199 186 174 186 224 238 350 119 189 224 206 189 184 191 199 192 189 203 200 52 256 188 29 110 203 202 280 344 169 211 248 252
16 13 12 10 9 8 9 4 350 290 251 222 207 181 207 189 169 176 218 227 247 253 214 224 289 234 227 179 198 205 204 177 201 162 149 73 270 112 161 202 190 172 211 221 290 251 263
8 8 5 5 5 5 8 14 20 64 209 212 198 187 183 181 140 192 237 223 6 278 197 275 265 285 210 173 201 216 218 217 167 162 157 174 112 228 209 96 8 338 236 193 224 210 239
360 2 3 2 2 4 6 19 36 0 16 254 357 134 173 173 181 208 241 290 275 282 270 189 268 234 265 232 242 200 198 131 169 178 165 167 202 227 197 187 22 222 208 231 257 296 246
353 355 359 1 2 2 4 4 5 1 337 334 325 357 16 195 314 277 217 235 233 234 252 215 228 312 252 254 240 247 237 143 194 196 152 167 182 243 247 57 76 203 215 224 222 248 263
341 345 349 351 354 356 359 360 360 357 359 0 26 62 92 232 260 269 321 332 244 231 229 276 244 226 231 242 217 221 208 133 166 186 176 206 229 217 260 268 226 241 222 204 216 233 245
327 331 335 339 342 343 347 351 355 358 10 45 8 343 290 242 222 258 227 265 260 283 235 224 234 253 237 242 247 278 255 187 238 174 203 68 218 124 263 256 244 254 243 233 242 240 257
314 319 323 326 327 330 330 336 343 352 360 11 351 306 298 275 228 242 201 231 301 328 228 239 265 288 239 247 259 266 266 258 246 183 187 169 198 181 252 346 290 270 242 228 243 240 238
304 307 310 311 309 311 315 319 321 328 346 333 316 324 274 271 239 254 253 226 260 253 262 278 292 273 276 269 244 246 243 246 252 244 189 167 195 193 254 148 250 354 117 223 233 249 242
295 297 299 300 303 298 296 294 297 297 294 294 288 283 266 275 277 270 273 273 284 281 274 272 264 250 262 218 221 216 184 211 217 228 219 186 180 200 222 211 284 296 258 189 186 255 232
289 287 285 292 290 295 291 293 290 282 284 276 263 259 244 277 259 269 275 281 281 287 279 266 266 273 210 207 234 232 219 198 191 178 319 227 209 208 180 232 246 96 43 118 146 269 254
283 282 285 288 289 291 289 286 282 283 278 272 272 255 238 247 255 249 254 266 266 264 279 293 297 255 212 222 226 243 248 191 186 186 170 175 198 214 223 241 269 212 159 151 208 279 146
287 287 286 285 286 281 279 279 278 280 275 270 267 263 258 251 254 245 235 223 243 237 253 322 290 209 218 234 236 222 235 222 268 184 174 172 177 197 218 236 254 159 126 216 213 188 252
283 284 282 281 279 278 275 279 279 278 273 268 269 266 268 252 262 267 248 251 247 243 249 242 250 290 289 269 249 258 240 207 223 242 186 220 214 194 205 214 275 192 221 225 274 292 292